Location: Unspecified
(0.0000°N, 0.0000°E)
Time: 22:29:21
(UTC+00:00)

Envisat - Pass Details

Date: 20 January 2018
Orbit: 764 x 766 km, 98.2° (Epoch: 20 July)

Event Time Altitude Azimuth Distance (km) Brightness Sun altitude
Rises 20:06:10 0° 171° (S) 3,228 6.4 -26.9°
Reaches altitude 10° 20:08:29 10° 173° (S) 2,300 5.6 -27.4°
Enters shadow 20:13:18 74° 229° (SW) 797 3.1 -28.5°
